Tracking 28790 objects as of 19-Apr-2024
HD Live streaming from Space Station
objects crossing your sky now

STARLINK-5088

Track STARLINK-5088 now!
10-day predictions
STARLINK-5088 is classified as:


NORAD ID: 54000
Int'l Code: 2022-125AN
Perigee: 545.9 km
Apogee: 547.9 km
Inclination: 53.2 °
Period: 95.4 minutes
Semi major axis: 6917 km
RCS: Unknown
Launch date: October 5, 2022
Source: United States (US)
Launch site: AIR FORCE WESTERN TEST RANGE (AFWTR)
Your satellite tracking list
Your tracking list is empty




NASA's NSSDC Master Catalog

Two Line Element Set (TLE):
1 54000U 22125AN  24110.15326612  .00001960  00000-0  14123-3 0  9995
2 54000  53.2179  59.7526 0001425 104.0585 256.0565 15.08839220 85579
Source of the keplerian elements: AFSPC